Regional Weather Roundup
Issued by NWS

Home | Current Version | Previous Version | Text Only | Print | Product List | Glossary Off
Versions: 1 2 3 4 5 6 7 8 9 10 11 12 13 14 15 16 17 18 19 20 21 22 23 24 25 26 27 28 29 30 31 32 33 34 35 36 37 38 39 40 41 42 43 44 45 46 47 48 49 50

000
ASUS43 KLOT 061303
RWRIL

ILLINOIS REGIONAL WEATHER ROUNDUP
NATIONAL WEATHER SERVICE CHICAGO/ROMEOVILLE IL
800 AM CDT FRI MAY 06 2016

NOTE: "FAIR" INDICATES FEW OR NO CLOUDS BELOW 12,000 FEET WITH NO
SIGNIFICANT WEATHER AND/OR OBSTRUCTIONS TO VISIBILITY.

* THESE STATIONS ARE NOT UNDER NWS QUALITY CONTROL. THEY ALSO MAY NOT
  REPORT WEATHER SUCH AS PRECIPITATION OR FOG.

ILZ001-002-007-009-015-016-024-061400-
NORTHWEST ILLINOIS

CITY           SKY/WX    TMP DP  RH WIND       PRES   REMARKS
MOLINE         SUNNY     57  44  62 E3        30.02R
STERLING*      PTSUNNY   52  43  71 CALM      30.03S
$$

ILZ003-004-008-010-011-017-018-061400-
NORTH CENTRAL ILLINOIS

CITY           SKY/WX    TMP DP  RH WIND       PRES   REMARKS
ROCKFORD       CLOUDY    55  44  66 VRB5      30.02S
FREEPORT*      SUNNY     55  42  61 S7        30.01S
ROCHELLE*      CLOUDY    53  44  71 W8        30.02R
DE KALB*       PTSUNNY   58  40  51 W10       30.01R
$$

ILZ005-006-012>014-019>023-061400-
NORTHEAST ILLINOIS

CITY           SKY/WX    TMP DP  RH WIND       PRES   REMARKS
CHICAGO-OHARE  CLOUDY    55  42  61 W7        29.99S
CHICAGO-MIDWAY CLOUDY    57  43  59 W8        30.00R
AURORA         CLOUDY    51  46  83 CALM      30.00F
LANSING*       PTSUNNY   50  46  84 CALM      30.01S
WAUKEGAN       PTSUNNY   56  43  61 VRB3      29.97S
DUPAGE AIRPORT CLOUDY    53  44  71 SW3       29.99S
WHEELING       CLOUDY    55  43  63 CALM      30.00R
NORTHERLY ISL    N/A     55  41  59 W10         N/A
NORTHERLY ISL    N/A     55  41  59 W10         N/A
$$

LMZ740>746-061400-
SOUTHERN LAKE MICHIGAN

STATION/POSITION SKY/WX   TEMP    WIND        PRES    VSBY  WAVE
                          AIR SEA DIR/SP/G                  HT/PER
                          (F)     (DEG/KT/KT) (MB)    (MI)  (FT/S)
SOUTHERN BUOY              43 40  170/  6/  8 1015.2          1
WILMETTE HARBOR            50 44  270/  4/  4   N/A           1/ 5
HARRISON CRIB              55     270/ 10/ 10   N/A
BURNHAM HARBOR             56     240/  8/ 11   N/A
CALUMET HARBOR             49     200/  4/  5 1015.1R
BURNS HARBOR               47     200/  5/  8 1016.6R
MICHIGAN CITY              45     160/  3/  4   N/A
ST. JOSEPH                 47 47                N/A           1/ 4
$$

ILZ025>027-034>036-040-047-049-050-058-095>099-061400-
WEST-CENTRAL ILLINOIS

CITY           SKY/WX    TMP DP  RH WIND       PRES   REMARKS
QUINCY         SUNNY     53  43  68 SW6       30.07R
MACOMB*        SUNNY     56  42  57 W9        30.07R
PITTSFIELD*    SUNNY     56  43  61 W5        30.08R
$$

ILZ028>032-037-038-041>044-048-051>054-059>061-061400-
CENTRAL ILLINOIS

CITY           SKY/WX    TMP DP  RH WIND       PRES   REMARKS
BLOOMINGTON    MOSUNNY   57  43  59 W8        30.05S
DECATUR        SUNNY     54  42  64 W6        30.05R
PEORIA         SUNNY     53  43  68 CALM      30.06R
SPRINGFIELD    MOSUNNY   56  42  59 W6        30.07R
TAYLORVILLE    NOT AVBL
$$

ILZ033-039-045-046-055>057-062-063-061400-
EAST-CENTRAL ILLINOIS

CITY           SKY/WX    TMP DP  RH WIND       PRES   REMARKS
CHAMPAIGN      CLOUDY    51  46  83 W8        30.04R
MATTOON        SUNNY     54  47  77 W7        30.04R
$$

ILZ079-100>102-061400-
SOUTHWEST ILLINOIS

CITY           SKY/WX    TMP DP  RH WIND       PRES   REMARKS
ALTON          SUNNY     54  46  76 SW7       30.08R
BELLEVILLE     SUNNY     57  46  67 NW5       30.07R
CAHOKIA*       SUNNY     53  45  74 VRB3      30.08R
SPARTA*        SUNNY     53  44  74 W7        30.09R
$$

ILZ064>066-069>071-074>076-080>082-084>086-088>090-092>094-061400-
SOUTH-CENTRAL ILLINOIS

CITY           SKY/WX    TMP DP  RH WIND       PRES   REMARKS
CARBONDALE     SUNNY     53  47  79 MISG      30.08R
MARION         SUNNY     52  48  87 W6        30.09R
MT. VERNON     SUNNY     52  46  82 CALM      30.08R
SALEM*         SUNNY     54  48  81 CALM      30.07R
$$

ILZ067-068-072-073-078-083-087-091-061400-
SOUTHEAST ILLINOIS

CITY           SKY/WX    TMP DP  RH WIND       PRES   REMARKS
LAWRENCEVILLE  SUNNY     53  48  83 NW5       30.05R
FLORA*         SUNNY     57  47  71 NW5       30.06R
HARRISBURG*    SUNNY     53  49  86 CALM      30.07S
ROBINSON*      SUNNY     52  48  86 CALM      30.06R
$$

ABBREVIATIONS USED IN REMARKS
   TC - TEMPERATURE IN CELSIUS
  WCI - WIND CHILL INDEX
   HX - HEAT INDEX
  VSB - VISIBILITY
$$





USA.gov is the U.S. government's official web portal to all federal, state and local government web resources and services.